[Iaude] MPEC P04: 2024 OT1 [a=1.83,e=0.56,i=5.1,H=26.5]
    mpec at cfa.harvard.edu 
    mpec at cfa.harvard.edu
       
    Wed Jul 31 21:21:48 EDT 2024
    
    
  
M.P.E.C. 2024-P04                                Issued 2024 August 1, 01:20 UT
     The Minor Planet Electronic Circulars contain information on unusual
         minor planets, routine data on comets and natural satellites,
         and occasional editorial announcements.  They are published
    on behalf of Division F of the International Astronomical Union by the
          Minor Planet Center, Smithsonian Astrophysical Observatory,
                          Cambridge, MA 02138, U.S.A.
			  
             Prepared using the Tamkin Foundation Computer Network
                              MPC at CFA.HARVARD.EDU
            URL https://www.minorplanetcenter.net/    ISSN 1523-6714
                                    2024 OT1                                    
Observations:
     K24O01T  C2024 07 31.33885722 29 12.482+17 10 09.16               UEP004I41
     K24O01T  C2024 07 31.33920422 29 11.610+17 09 20.40               UEP004I41
     K24O01T* C2024 07 31.38211322 27 22.311+15 30 55.37         17.66RUEP004I41
     K24O01T  C2024 07 31.38246122 27 21.470+15 30 12.75         17.66RUEP004I41
     K24O01T  C2024 07 31.38305322 27 20.159+15 28 52.43         17.54RUEP004I41
     K24O01T  C2024 07 31.38340022 27 19.308+15 28 06.07         17.54RUEP004I41
     K24O01T  C2024 07 31.40094722 26 36.948+14 49 38.27         17.82RUEP004I41
     K24O01T  C2024 07 31.40129522 26 36.110+14 48 52.63         17.82RUEP004I41
     K24O01T  C2024 07 31.42039722 25 51.678+14 08 04.98         18.03gUEP004I41
     K24O01T  C2024 07 31.42074422 25 50.792+14 07 20.72         18.03gUEP004I41
     K24O01T KC2024 07 31.69341022 18 56.46 +06 12 37.7          17.8 GVEP004900
     K24O01T KC2024 07 31.69833622 18 48.92 +06 05 36.7          17.9 GVEP004900
     K24O01T KC2024 07 31.70326222 18 41.42 +05 58 38.3          17.8 GVEP004900
     K24O01T KC2024 07 31.86340 22 16 14.51 +02 32 56.3          17.4 VqEP004L04
     K24O01T KC2024 07 31.86805 22 16 09.14 +02 27 39.8          17.3 VqEP004L04
     K24O01T KC2024 07 31.86856 22 16 09.17 +02 26 42.7          18.5 GXEP004G02
     K24O01T KC2024 07 31.87348 22 16 03.56 +02 21 08.2          18.2 GXEP004G02
     K24O01T KC2024 07 31.87851 22 15 57.98 +02 15 31.4          18.3 GXEP004G02
     K24O01T KC2024 07 31.91994922 15 08.33 +01 30 22.4          17.8 GXEP004L18
     K24O01T KB2024 07 31.92171622 15 20.69 +01 29 10.9          17.7 GXEP004958
     K24O01T KC2024 07 31.92237622 15 14.97 +01 28 28.3          18.1 GVEP004104
     K24O01T KB2024 07 31.92460322 15 17.61 +01 26 07.8          17.6 GXEP004958
     K24O01T KC2024 07 31.92521822 15 02.56 +01 24 46.7          18.1 GXEP004L18
     K24O01T KC2024 07 31.92658122 15 08.37 +01 23 43.9          18.2 GXEP004595
     K24O01T KB2024 07 31.92749522 15 14.50 +01 23 04.3          18.2 GXEP004958
     K24O01T KB2024 07 31.92858522 15 12.65 +01 21 48.5          18.2 GXEP004I93
     K24O01T KC2024 07 31.92934522 15 07.35 +01 21 06.5          18.1 GVEP004104
     K24O01T KC2024 07 31.93046322 14 56.74 +01 19 16.2          18.2 GXEP004L18
     K24O01T KB2024 07 31.93069222 15 10.42 +01 19 35.3          17.7 GXEP004I93
     K24O01T KC2024 07 31.93166822 15 04.80 +01 18 39.6          18.2 GVEP004104
     K24O01T KC2024 07 31.93223022 15 02.21 +01 17 47.3          17.8 GXEP004595
     K24O01T KB2024 07 31.93278822 15 08.19 +01 17 23.4          18.1 GXEP004I93
     K24O01T KC2024 07 31.93789222 14 56.04 +01 11 52.7          18.5 GXEP004595
     K24O01T KC2024 07 31.95608422 14 36.41 +00 53 14.3          17.9 GVEP004L01
     K24O01T KC2024 07 31.95683922 14 35.60 +00 52 28.3          17.9 GVEP004L01
     K24O01T KC2024 07 31.95835122 14 33.94 +00 50 56.5          18.0 GVEP004L01
     K24O01T KC2024 07 31.95910622 14 33.15 +00 50 10.0          18.0 GVEP004L01
     K24O01T KC2024 07 31.96061822 14 31.53 +00 48 38.0          18.1 GVEP004L01
     K24O01T KC2024 07 31.96137322 14 30.71 +00 47 52.0          18.3 GVEP004L01
     K24O01T KC2024 07 31.96767922 14 23.95 +00 41 30.5          18.4 GVEP004L01
     K24O01T KC2024 07 31.96844722 14 23.13 +00 40 44.2          18.2 GVEP004L01
     K24O01T KC2024 07 31.96918722 14 22.33 +00 39 59.9          18.2 GVEP004L01
     K24O01T KB2024 07 31.98409 22 13 59.73 +00 25 04.7          18.2 GXEP004M45
     K24O01T KC2024 07 31.98429322 14 13.723+00 24 32.54         18.0 GXEP004Z43
     K24O01T KB2024 07 31.98629 22 13 57.39 +00 22 54.5          18.1 GXEP004M45
     K24O01T KB2024 07 31.98845 22 13 55.13 +00 20 47.6          18.4 GXEP004M45
     K24O01T KC2024 07 31.99149522 14 06.394+00 17 28.36         18.3 GXEP004Z43
     K24O01T KC2024 07 31.99746322 14 00.276+00 11 38.76         18.7 GXEP004Z43
     K24O01T KC2024 08 01.01617722 13 36.605-00 06 08.06         17.8 GVEP004K30
     K24O01T KC2024 08 01.02610622 13 26.525-00 15 28.84         18.0 GVEP004K30
     K24O01T KC2024 08 01.03036222 13 22.234-00 19 28.74         18.1 GVEP004K30
Observer details:
104 San Marcello Pistoiese.  Observers P. Bacci, M. Maestripieri.  Measurers
    P. Bacci, L. Tesi, G. Fagioli.  0.60-m F4 Reflector + CCD.
595 Farra d'Isonzo.  Observer E. Pettarin.  0.61-m f/4.5 reflector + CCD.
900 Moriyama.  Observer Y. Ikari.  0.26-m f/7.0 reflector + CMO.
958 Observatoire de Dax.  Observer P. Dupouy.  0.50-m f/4.5 Reflector + CMO.
G02 KYSUCE Observatory, Kysucke Nove Mesto.  Observer M. Urbanik.  0.40-m
    f/6.8 Corrected Dall-Kirkham + CCD.
I41 Palomar Mountain--ZTF.  Observers G. Helou, T. A. Prince, K.
    Venkataramani, Q.-Z. Ye, Z. T. F. Collaboration, T. Batra.  Measurers D.
    A. Duev, H.-W. Lin, A. A. Mahabal, F. J. Masci, Q.-Z. Ye.  1.2-m f/2.4
    Schmidt + ZTF Camera.
I93 St Pardon de Conques.  Observer F. Losse.  0.40-m f/3.7 reflector + CMO.
K30 Luscherz.  Observer L. Grimm.  0.25-m f/4.8 0.25m f/4.8 Newtonian
    reflector + CCD + CCD.
L01 Visnjan Observatory, Tican.  Observers K. Korlevic, L. Poropat.  Measurer
    K. Korlevic.  1.0-m f/2.9 reflector + CCD.
L04 ROASTERR-1 Observatory, Cluj-Napoca.  Observer L. Hudin.  0.30-m f/5
    reflector + CCD.
L18 QOS Observatory, Zalistsi.  Observer O. V. Kravchenko.  Measurer A. M.
    Kozhukhov.  0.50-m f/3.8 reflector + CCD.
M45 Starhopper Observatory, Sfantu Gheorghe.  Observer F. Ursache.  0.41-m
    f/7.5 reflector + CMO.
Z43 Landehen.  Observer C. Ratinaud.  0.25-m f/3.6 reflector + CCD.
Orbital elements:
2024 OT1                                                 Earth MOID = 0.0047 AU
Epoch 2024 Oct. 17.0 TT = JDT 2460600.5                 Veres                   
M  49.06915              (2000.0)            P               Q                  
n   0.39693062     Peri.  111.12481     -0.46935142     +0.88040015             
a   1.8336917      Node   130.69865     -0.83972836     -0.42125972             
e   0.5646459      Incl.    5.13518     -0.27306690     -0.21779766             
P   2.48           H   26.58          G   0.15           U   7                  
Residuals in seconds of arc
240731 I41  0.5-  0.4-    240731 G02 (0.0   1.7+)   240731 L01  0.1+  0.1+
240731 I41  0.1+  0.0     240731 L18  1.1-  0.2-    240731 L01  0.3-  0.6+
240731 I41 (1.9-  2.8-)   240731 958  0.0   0.3-    240731 L01  0.0   0.1+
240731 I41 (1.8-  1.0+)   240731 104  0.0   0.4+    240731 L01  0.1+  0.1+
240731 I41  0.3+  0.4-    240731 958  0.0   0.1+    240731 L01  0.0   0.0
240731 I41  0.3+  0.5-    240731 L18  0.0   0.5-    240731 L01  0.1+  0.3+
240731 I41  0.3-  0.7+    240731 595  0.6-  0.8-    240731 L01  0.1+  0.2+
240731 I41  0.5-  0.2+    240731 958  0.3-  0.2-    240731 L01  0.0   0.5+
240731 I41  0.9+  0.9+    240731 I93  0.1-  0.6+    240731 M45 (0.0   0.7-)
240731 I41  0.5-  0.6+    240731 104  0.2+  0.3+    240731 Z43  0.4-  1.3+
240731 900  0.1-  0.2-    240731 L18  0.5-  0.7+    240731 M45 (0.3-  0.9-)
240731 900  0.0   0.3-    240731 I93  0.2+  0.3+    240731 M45  0.0   0.5-
240731 900  0.2-  0.6-    240731 104  0.1+  0.2-    240731 Z43  0.4+  0.9+
240731 L04  0.5+  0.8-    240731 595  0.3-  0.9-    240731 Z43  0.0   0.2-
240731 L04  0.3-  0.2-    240731 I93  0.2+  0.2+    240801 K30 (0.7+  1.0-)
240731 G02 (0.6+  1.2+)   240731 595  0.3-  0.6-    240801 K30  0.3+  0.4+
240731 G02  0.8-  0.1-    240731 L01  0.0   0.1-    240801 K30  0.1+  0.6-
Ephemeris:
2024 OT1                 a,e,i = 1.83, 0.56, 5                   q = 0.7983
Date    TT    R. A. (2000) Decl.     Delta      r    Elong.  Phase     V
2024 07 02    09 34 49.5 +25 54 01   0.2541  0.8335    38.6   130.4    29.0
...
2024 07 17    09 45 22.8 +27 25 33   0.1163  0.9151    27.8   148.8    29.9
...
2024 07 25    09 43 07.4 +31 25 35   0.04774 0.9718    22.5   156.5    29.8
...
2024 07 31    22 47 31.5 +34 33 45   0.0064181.0183   119.3    60.4    17.8
2024 08 01    22 13 44.9 +00 18 28   0.01280 1.0263   151.6    28.1    18.4
2024 08 02    22 04 57.9 -09 45 54   0.02068 1.0343   160.0    19.6    19.2
...
2024 08 08    21 54 14.5 -20 42 48   0.07094 1.0837   169.1    10.2    21.7
...
2024 08 16    21 51 14.4 -22 43 37   0.1407  1.1517   170.8     8.1    23.2
...
2024 08 31    21 50 04.8 -23 03 15   0.2835  1.2817   161.6    14.4    25.2
M. P. C. Staff               (C) Copyright 2024 MPC           M.P.E.C. 2024-P04
    
    
More information about the Iaude
mailing list